Weather Service Report


752 
ASUS45 KBOU 210407
RWRCO 

WEATHER ROUNDUP FOR COLORADO
NATIONAL WEATHER SERVICE DENVER/BOULDER CO
900 PM MST FRI JAN 20 2017

NOTE: "FAIR" INDICATES FEW OR NO CLOUDS BELOW 12000 FEET WITH NO
SIGNIFICANT WEATHER AND/OR OBSTRUCTIONS TO VISIBILITY.

COZ001>005-013-030-031-210500-
...NORTHWEST COLORADO...
  
CITY           SKY/WX    TMP DP  RH WIND       PRES   REMARKS
CRAIG          CLOUDY    26  20  77 E3        29.46F                  
HAYDEN         CLOUDY    25  19  80 E6        29.46F WCI  18          
MEEKER         MOCLDY    18  17  96 CALM      29.44F                  
MOUNT WERNER   NOT AVBL                                               
STEAMBOAT SPGS CLOUDY    23  21  91 E8        29.46F WCI  14          
WALDEN           N/A     19  14  79 S10       29.46S WCI   8          
$$

COZ006>008-011-210500-
...WEST CENTRAL VALLEYS...
  
CITY           SKY/WX    TMP DP  RH WIND       PRES   REMARKS
GRAND JUNCTION CLOUDY    34  30  85 SE8       29.46F WCI  27          
MONTROSE       FAIR      33  22  63 SE9       29.51F WCI  25          
EAGLE          CLEAR     19  16  86 CALM      29.52F                  
RIFLE          MOCLDY    29  27  92 E3        29.48F                  
DELTA          FAIR      35  29  78 E15       29.52S WCI  26          
NUCLA          CLOUDY    32  27  80 CALM      29.53F                  
$$

COZ017>023-064>068-210500-
...SOUTHWEST COLORADO...
  
CITY           SKY/WX    TMP DP  RH WIND       PRES   REMARKS
DURANGO        LGT SNOW  28  25  88 E7        29.58R VSB 1   WCI  21  
CORTEZ         LGT SNOW  31  31 100 CALM      29.55S VSB 1            
PAGOSA SPRINGS LGT SNOW  25  25  98 NE3       29.58F                  
TELLURIDE      CLOUDY    24  14  65 CALM      29.51F                  
WOLF CREEK PAS CLOUDY     9   9 100 SW16G22   29.55R WCI  -9          
$$

COZ009-010-012-014-032>034-037-058>063-210500-
...CENTRAL COLORADO...
  
CITY           SKY/WX    TMP DP  RH WIND       PRES   REMARKS
ASPEN          MOCLDY    20  15  81 S7        29.48S WCI  11          
BUENA VISTA    FAIR      25  11  55 E5        29.49S WCI  19          
COPPER MTN     FAIR      14   9  79 MISG      29.45S                  
BERTHOUD PASS  NOT AVBL                                               
COTTONWOOD PAS FAIR      25   5  42 SW7       29.47R WCI  17          
GUNNISON       FAIR      11   9  92 CALM      29.55S                  
KREMMLING      FLURRIES  21  19  93 CALM      29.49F                  
LEADVILLE      FAIR       5   1  83 E6        29.46R WCI  -6          
MONARCH PASS   CLOUDY    10   5  79 NW6       29.56S WCI   1          
SALIDA         FAIR      31  14  50 SW12G22   29.58R WCI  22          
SUNLIGHT       FOG       12  10  92 MISG      29.49F VSB 1/2          
WILKERSON PASS FAIR      12   5  73 SW14G21   29.46S WCI  -3          
$$

COZ069>075-210500-
...SAN LUIS VALLEY/SANGRE DE CRISTO MOUNTAINS...
  
CITY           SKY/WX    TMP DP  RH WIND       PRES   REMARKS
ALAMOSA        FAIR      20  14  77 SE7       29.55S WCI  11          
LA VETA PASS   FAIR      16  10  79 NE30G44   29.46F WCI  -4          
SAGUACHE       FAIR      16  12  86 NE8       29.55S WCI   5          
$$

COZ035-036-038>040-210500-
...NORTHERN COLORADO FRONT RANGE...
  
CITY           SKY/WX    TMP DP  RH WIND       PRES   REMARKS
DENVER INTL AP FAIR      29  25  85 S13       29.42S WCI  19          
DMNS CITY PARK   N/A     34  26  72 E12G20    29.42F WCI  25          
AURORA         PTCLDY    30  28  92 SE8       29.43F WCI  22          
FRONT RANGE AP NOT AVBL                                               
ERIE MUNI ARPT MOCLDY    33  27  81 CALM      29.42R                  
BOULDER MUN AP FAIR      34  28  80 W3        29.42S                  
CENTENNIAL     FAIR      31  26  82 S3        29.43R                  
BROOMFIELD     PTCLDY    37  18  44 W14       29.43R                  
FORT COLLINS   FAIR      30  25  80 S8        29.42F WCI  23          
LONGMONT       FAIR      37  28  68 S6        29.43F                  
$$

COZ041-046-047-076>085-087-088-210500-
...PIKES PEAK/PALMER DIVIDE AND SOUTHERN FOOTHILLS...
  
CITY           SKY/WX    TMP DP  RH WIND       PRES   REMARKS
COLO. SPRINGS  FOG       29  27  92 CALM      29.45F VSB 1            
A. F. ACADEMY  FAIR      28  27  96 S3        29.44S                  
SCHRIEVER AFB  NOT AVBL                                               
ELLICOTT       FAIR     N/A N/A N/A CALM      29.45R                  
FALCON         FAIR      27  27  98 CALM      29.45F                  
FORT CARSON    CLOUDY    32  29  91 CALM      29.45S                  
LIMON          FAIR      21  20  96 CALM      29.45S                  
MONUMENT HILL  FAIR      27  23  86 SW9       29.45S WCI  17          
TRINIDAD       FAIR      34  14  43 NW9       29.47S WCI  27          
$$

COZ042>045-048>051-090-091-210500-
...NORTHEAST COLORADO...
  
CITY           SKY/WX    TMP DP  RH WIND       PRES   REMARKS
GREELEY ARPT   NOT AVBL                                               
AKRON          FAIR      29  23  78 W7        29.44R WCI  22          
BURLINGTON     FAIR      33  31  92 W8        29.47R WCI  26          
WRAY           NOT AVBL                                               
STERLING       FAIR      32  28  86 CALM      29.42R                  
HOLYOKE        FAIR      37  34  87 NW12G17   29.44S                  
FORT MORGAN    FAIR      32  26  78 CALM      29.45R                  
$$

COZ086-089-092>099-210500-
...SOUTHEAST COLORADO...
  
CITY           SKY/WX    TMP DP  RH WIND       PRES   REMARKS
PUEBLO         FOG       31  30  96 N7        29.47R VSB 1/4 WCI  24  
LA JUNTA       FAIR      31  22  69 S6        29.46R WCI  25          
LAMAR          FAIR      24  22  91 CALM      29.47R                  
SPRINGFIELD      N/A     23  22  96 SW9       29.49R WCI  13          
$$
  

Return to Home page


Western Regional Climate Center, wrcc@dri.edu